TimeMDT,TemperatureF,Dew PointF,Humidity,Sea Level PressureIn,VisibilityMPH,Wind Direction,Wind SpeedMPH,Gust SpeedMPH,PrecipitationIn,Events,Conditions,WindDirDegrees,DateUTC
12:00 AM,42.1,29.7,61,30.00,-9999.0,WSW,5.8,-,N/A,,Unknown,240,2013-10-27 06:00:00
1:00 AM,41.4,30.2,65,29.96,-9999.0,SW,5.8,-,N/A,,Unknown,220,2013-10-27 07:00:00
2:00 AM,41.7,32.9,71,29.96,-9999.0,WSW,5.8,-,N/A,,Unknown,250,2013-10-27 08:00:00
3:00 AM,40.1,34.0,79,29.94,-9999.0,SW,6.9,-,N/A,,Unknown,230,2013-10-27 09:00:00
4:00 AM,38.1,35.8,91,29.93,-9999.0,WSW,1.2,-,0.01,,Unknown,240,2013-10-27 10:00:00
5:00 AM,37.2,35.6,94,29.93,-9999.0,Calm,Calm,-,0.03,,Unknown,0,2013-10-27 11:00:00
6:00 AM,35.8,34.7,96,29.95,-9999.0,NNW,2.3,-,0.05,,Unknown,340,2013-10-27 12:00:00
7:00 AM,34.7,34.2,98,29.95,-9999.0,NNW,1.2,-,0.04,,Unknown,330,2013-10-27 13:00:00
8:00 AM,34.9,34.7,99,29.99,-9999.0,ENE,1.2,-,0.06,,Unknown,70,2013-10-27 14:00:00
9:00 AM,34.2,33.6,98,30.04,-9999.0,NE,5.8,-,0.05,,Unknown,50,2013-10-27 15:00:00
10:00 AM,34.0,33.1,96,30.12,-9999.0,NE,8.1,-,0.04,,Unknown,50,2013-10-27 16:00:00
11:00 AM,31.6,30.4,95,30.22,-9999.0,ENE,10.4,17.3,0.03,,Unknown,70,2013-10-27 17:00:00
12:00 PM,31.1,29.1,92,30.30,-9999.0,ENE,8.1,-,0.02,,Unknown,70,2013-10-27 18:00:00
1:00 PM,30.6,27.9,90,30.33,-9999.0,ENE,9.2,-,N/A,,Unknown,70,2013-10-27 19:00:00
2:00 PM,29.7,26.6,88,30.35,-9999.0,ENE,6.9,-,N/A,,Unknown,60,2013-10-27 20:00:00
3:00 PM,29.5,26.1,87,30.37,-9999.0,NE,5.8,-,N/A,,Unknown,50,2013-10-27 21:00:00
4:00 PM,28.4,25.2,88,30.40,-9999.0,NE,6.9,-,N/A,,Unknown,50,2013-10-27 22:00:00
5:00 PM,27.3,23.4,85,30.42,-9999.0,ENE,6.9,-,N/A,,Unknown,60,2013-10-27 23:00:00
6:00 PM,26.2,22.3,85,30.45,-9999.0,NE,5.8,-,N/A,,Unknown,50,2013-10-28 00:00:00
7:00 PM,25.2,21.7,87,30.48,-9999.0,NE,6.9,-,N/A,,Unknown,40,2013-10-28 01:00:00
8:00 PM,24.3,20.3,85,30.51,-9999.0,NNE,9.2,-,N/A,,Unknown,20,2013-10-28 02:00:00
9:00 PM,23.2,19.6,86,30.52,-9999.0,NNE,8.1,-,N/A,,Unknown,30,2013-10-28 03:00:00
10:00 PM,22.3,18.0,83,30.54,-9999.0,NNE,8.1,-,N/A,,Unknown,30,2013-10-28 04:00:00
11:00 PM,21.7,18.1,86,30.55,-9999.0,NNE,8.1,-,N/A,,Unknown,20,2013-10-28 05:00:00